Weather History for Great Bend, KS

Change the Weather History Date:

Saturday, June 15, 2013

  Actual Average Record
Temperature  
Mean Temperature 82 °F -  
Max Temperature 95 °F 89 °F 103 °F (1952)
Min Temperature 68 °F 62 °F 47 °F (1989)
Cooling Degree Days 16    
Growing Degree Days 32 (Base 50)    
Moisture  
Dew Point 60 °F    
Average Humidity 54    
Maximum Humidity 78    
Minimum Humidity 34    
Precipitation  
Precipitation 0.04 in - - ()
Sea Level Pressure  
Sea Level Pressure 29.90 in    
Wind  
Wind Speed 12 mph (South)    
Max Wind Speed 25 mph    
Max Gust Speed 34 mph    
Visibility 10 miles    
Events Thunderstorm    
Averages and records for this station are not official NWS values.
T = Trace of Precipitation, MM = Missing Value Source: NWS Daily Summary

Daily Weather History Graph

Daily Weather History Graph

Search for Another Location

Airport:

Trip Planner

Search our weather history database for the weather conditions in past years. The results will help you decide how hot, cold, wet, or windy it might be!

Date:

Astronomy

Jun. 15, 2013 Rise Set
Actual Time 6:11 AM CDT 9:00 PM CDT
Civil Twilight 5:39 AM CDT 9:32 PM CDT
Nautical Twilight 4:59 AM CDT 10:12 PM CDT
Astronomical Twilight 4:14 AM CDT 10:57 PM CDT
Moon 12:42 PM CDT (6/15) 12:41 AM CDT (6/15)
Length of Visible Light 15h 52m
Length of Day
14h 49m
Waxing Crescent, 40% of the Moon is Illuminated
Jun 15
Waxing Crescent
Jun 16
First Quarter
Jun 23
Full
Jun 29
Last Quarter
Jul 8
New

Hourly Weather History & Observations

Time (CDT) Temp. Heat Index Dew Point Humidity Pressure Visibility Wind Dir Wind Speed Gust Speed Precip Events Conditions
12:15 AM 75.2 °F - 57.2 °F 53% 29.92 in 10.0 mi South 9.2 mph - N/A   Clear
12:35 AM 75.2 °F - 55.4 °F 50% 29.92 in 10.0 mi South 10.4 mph - N/A   Clear
12:55 AM 73.4 °F - 55.4 °F 53% 29.92 in 10.0 mi South 9.2 mph - N/A   Clear
1:15 AM 73.4 °F - 55.4 °F 53% 29.92 in 10.0 mi South 5.8 mph - N/A   Clear
1:35 AM 69.8 °F - 55.4 °F 60% 29.94 in 10.0 mi NNW 9.2 mph - N/A   Clear
1:55 AM 73.4 °F - 55.4 °F 53% 29.93 in 10.0 mi SSW 4.6 mph - N/A   Clear
2:15 AM 73.4 °F - 55.4 °F 53% 29.93 in 10.0 mi WNW 3.5 mph - N/A   Clear
2:35 AM 69.8 °F - 55.4 °F 60% 29.93 in 10.0 mi Calm Calm - N/A   Clear
2:55 AM 69.8 °F - 55.4 °F 60% 29.93 in 10.0 mi SSW 3.5 mph - N/A   Clear
3:15 AM 69.8 °F - 57.2 °F 64% 29.92 in 10.0 mi South 4.6 mph - N/A   Clear
3:35 AM 71.6 °F - 57.2 °F 60% 29.93 in 10.0 mi SW 5.8 mph - N/A   Clear
3:55 AM 71.6 °F - 57.2 °F 60% 29.93 in 10.0 mi SSW 5.8 mph - N/A   Clear
4:15 AM 71.6 °F - 57.2 °F 60% 29.93 in 10.0 mi SW 5.8 mph - N/A   Clear
4:35 AM 71.6 °F - 57.2 °F 60% 29.94 in 10.0 mi SW 6.9 mph - N/A   Clear
4:55 AM 73.4 °F - 59.0 °F 61% 29.93 in 10.0 mi SW 13.8 mph 18.4 mph N/A   Clear
5:15 AM 75.2 °F - 59.0 °F 57% 29.93 in 10.0 mi SW 9.2 mph - N/A   Clear
5:35 AM 73.4 °F - 60.8 °F 65% 29.94 in 10.0 mi SW 8.1 mph - N/A   Clear
5:55 AM 73.4 °F - 60.8 °F 65% 29.94 in 10.0 mi SSW 8.1 mph - N/A   Clear
6:15 AM 73.4 °F - 60.8 °F 65% 29.96 in 10.0 mi SSW 9.2 mph - N/A   Clear
6:35 AM 73.4 °F - 60.8 °F 65% 29.96 in 10.0 mi SSW 10.4 mph 16.1 mph N/A   Clear
6:55 AM 73.4 °F - 60.8 °F 65% 29.96 in 10.0 mi SSW 10.4 mph - N/A   Clear
7:15 AM 73.4 °F - 60.8 °F 65% 29.97 in 10.0 mi SSW 11.5 mph - N/A   Mostly Cloudy
7:35 AM 73.4 °F - 60.8 °F 65% 29.96 in 10.0 mi SSW 6.9 mph - N/A   Overcast
7:55 AM 73.4 °F - 60.8 °F 65% 29.96 in 10.0 mi South 6.9 mph - N/A   Mostly Cloudy
8:15 AM 73.4 °F - 60.8 °F 65% 29.95 in 10.0 mi SSW 4.6 mph - N/A   Mostly Cloudy
8:35 AM 73.4 °F - 60.8 °F 65% 29.96 in 10.0 mi South 6.9 mph - N/A   Mostly Cloudy
8:55 AM 75.2 °F - 60.8 °F 61% 29.96 in 10.0 mi South 8.1 mph - N/A   Overcast
9:15 AM 75.2 °F - 60.8 °F 61% 29.96 in 10.0 mi South 5.8 mph - N/A   Overcast
9:35 AM 75.2 °F - 60.8 °F 61% 29.96 in 10.0 mi South 4.6 mph - N/A   Overcast
9:55 AM 73.4 °F - 64.4 °F 73% 29.96 in 10.0 mi SSE 9.2 mph - N/A   Overcast
10:15 AM 75.2 °F - 62.6 °F 65% 29.96 in 10.0 mi South 13.8 mph - N/A   Overcast
10:35 AM 77.0 °F - 62.6 °F 61% 29.94 in 10.0 mi South 16.1 mph - N/A   Overcast
10:55 AM 78.8 °F - 62.6 °F 57% 29.94 in 10.0 mi SSW 15.0 mph 19.6 mph N/A   Overcast
11:15 AM 80.6 °F 81.8 °F 62.6 °F 54% 29.94 in 10.0 mi SSW 17.3 mph 23.0 mph N/A   Overcast
11:35 AM 82.4 °F 83.4 °F 62.6 °F 51% 29.94 in 10.0 mi SSW 20.7 mph 24.2 mph N/A   Overcast
11:55 AM 84.2 °F 85.6 °F 64.4 °F 51% 29.94 in 10.0 mi South 20.7 mph 29.9 mph N/A   Mostly Cloudy
12:15 PM 84.2 °F 85.0 °F 62.6 °F 48% 29.93 in 10.0 mi South 25.3 mph 32.2 mph N/A   Mostly Cloudy
12:35 PM 86.0 °F 86.6 °F 62.6 °F 45% 29.92 in 10.0 mi South 23.0 mph 32.2 mph N/A   Mostly Cloudy
12:55 PM 89.6 °F 90.1 °F 62.6 °F 40% 29.91 in 10.0 mi SSW 20.7 mph 31.1 mph N/A   Scattered Clouds
1:15 PM 89.6 °F 90.1 °F 62.6 °F 40% 29.91 in 10.0 mi SSW 18.4 mph 31.1 mph N/A   Mostly Cloudy
1:35 PM 89.6 °F 90.1 °F 62.6 °F 40% 29.89 in 10.0 mi SSW 21.9 mph 29.9 mph N/A   Scattered Clouds
1:55 PM 91.4 °F 92.1 °F 62.6 °F 38% 29.87 in 10.0 mi SSW 24.2 mph 33.4 mph N/A   Partly Cloudy
2:15 PM 91.4 °F 92.1 °F 62.6 °F 38% 29.87 in 10.0 mi SSW 19.6 mph 34.5 mph N/A   Partly Cloudy
2:35 PM 91.4 °F 91.4 °F 60.8 °F 36% 29.87 in 10.0 mi South 20.7 mph 32.2 mph N/A   Scattered Clouds
2:55 PM 93.2 °F 93.3 °F 60.8 °F 34% 29.86 in 10.0 mi SW 21.9 mph 26.5 mph N/A   Scattered Clouds
3:15 PM 93.2 °F 93.3 °F 60.8 °F 34% 29.85 in 10.0 mi SSW 20.7 mph 28.8 mph N/A   Scattered Clouds
3:35 PM 93.2 °F 93.3 °F 60.8 °F 34% 29.85 in 10.0 mi SSW 21.9 mph 28.8 mph N/A   Partly Cloudy
3:55 PM 93.2 °F 93.3 °F 60.8 °F 34% 29.84 in 10.0 mi SSW 20.7 mph 28.8 mph N/A   Scattered Clouds
4:15 PM 93.2 °F 93.3 °F 60.8 °F 34% 29.84 in 10.0 mi SSW 16.1 mph 29.9 mph N/A   Scattered Clouds
4:35 PM 93.2 °F 94.1 °F 62.6 °F 36% 29.82 in 10.0 mi SSW 23.0 mph 29.9 mph N/A   Partly Cloudy
4:55 PM 95.0 °F 96.0 °F 62.6 °F 34% 29.82 in 10.0 mi SSW 19.6 mph 26.5 mph N/A   Clear
5:15 PM 93.2 °F 94.1 °F 62.6 °F 36% 29.81 in 10.0 mi SSW 16.1 mph 24.2 mph N/A   Clear
5:35 PM 93.2 °F 94.1 °F 62.6 °F 36% 29.80 in 10.0 mi SSW 21.9 mph 27.6 mph N/A   Partly Cloudy
5:55 PM 93.2 °F 94.1 °F 62.6 °F 36% 29.80 in 10.0 mi SSW 21.9 mph 25.3 mph N/A   Partly Cloudy
6:15 PM 93.2 °F 94.1 °F 62.6 °F 36% 29.78 in 10.0 mi South 25.3 mph 32.2 mph N/A   Clear
6:35 PM 91.4 °F 92.1 °F 62.6 °F 38% 29.78 in 10.0 mi South 21.9 mph 27.6 mph N/A   Clear
6:55 PM 89.6 °F 90.1 °F 62.6 °F 40% 29.77 in 10.0 mi South 21.9 mph 31.1 mph N/A   Clear
7:15 PM 89.6 °F 90.1 °F 62.6 °F 40% 29.78 in 10.0 mi South 25.3 mph 29.9 mph N/A Thunderstorm Clear
7:35 PM 89.6 °F 90.1 °F 62.6 °F 40% 29.80 in 10.0 mi South 24.2 mph 28.8 mph N/A Thunderstorm Clear
7:55 PM 87.8 °F 88.5 °F 62.6 °F 43% 29.82 in 10.0 mi SE 17.3 mph 21.9 mph N/A Thunderstorm Scattered Clouds
8:15 PM 78.8 °F - 57.2 °F 47% 29.86 in 10.0 mi NE 16.1 mph 24.2 mph N/A Thunderstorm Overcast
8:35 PM 84.2 °F 83.0 °F 55.4 °F 37% 29.86 in 7.0 mi East 20.7 mph 33.4 mph N/A Thunderstorm Thunderstorm
8:55 PM 77.0 °F - 57.2 °F 50% 29.87 in 10.0 mi East 12.7 mph 24.2 mph N/A Thunderstorm Thunderstorm
9:15 PM 69.8 °F - 62.6 °F 78% 29.87 in 10.0 mi ESE 23.0 mph - 0.03 in Thunderstorm Mostly Cloudy
9:35 PM 68.0 °F - 59.0 °F 73% 29.88 in 10.0 mi SE 21.9 mph 25.3 mph 0.04 in Thunderstorm Partly Cloudy
9:55 PM 68.0 °F - 60.8 °F 78% 29.90 in 10.0 mi SE 21.9 mph 27.6 mph 0.04 in Thunderstorm Clear
10:15 PM 68.0 °F - 60.8 °F 78% 29.91 in 10.0 mi South 13.8 mph 26.5 mph N/A Thunderstorm Partly Cloudy
10:35 PM 69.8 °F - 60.8 °F 73% 29.90 in 10.0 mi SSE 10.4 mph - N/A   Clear
10:55 PM 69.8 °F - 62.6 °F 78% 29.87 in 10.0 mi SE 16.1 mph - N/A   Partly Cloudy
11:15 PM 73.4 °F - 64.4 °F 73% 29.87 in 10.0 mi East 10.4 mph - N/A   Partly Cloudy
11:35 PM 73.4 °F - 62.6 °F 69% 29.90 in 10.0 mi SE 11.5 mph - N/A   Clear
11:55 PM 73.4 °F - 62.6 °F 69% 29.89 in 10.0 mi South 15.0 mph - N/A   Clear